This is the latest recevied weather packets stored in our database for station/object SR9NSK-1. If no packets are shown the sender has not sent any weather packets the latest 1 day(s).
| Time | Temp. | Humidity | Pressure | Rain* | Wind** | Luminosity | Snow |
|---|---|---|---|---|---|---|---|
| 1778024501 | 10° C | 54% | 867.6 hPa | - | 7.15 m/s, 126° | - | - |
| 1778024381 | 10° C | 54% | 867.7 hPa | - | 7.15 m/s, 142° | - | - |
| 1778024261 | 10° C | 54% | 867.7 hPa | - | 7.6 m/s, 120° | - | - |
| 1778024141 | 10° C | 54% | 867.7 hPa | - | 7.15 m/s, 129° | - | - |
| 1778024019 | 10° C | 54% | 867.8 hPa | - | 8.05 m/s, 135° | - | - |
| 1778023899 | 10° C | 54% | 867.8 hPa | - | 7.15 m/s, 141° | - | - |
| 1778023779 | 10° C | 54% | 867.8 hPa | - | 7.6 m/s, 142° | - | - |
| 1778023659 | 10° C | 54% | 867.8 hPa | - | 7.6 m/s, 130° | - | - |
| 1778023539 | 10° C | 54% | 867.8 hPa | - | 7.6 m/s, 129° | - | - |
| 1778023419 | 10° C | 54% | 867.9 hPa | - | 8.05 m/s, 135° | - | - |
| 1778023299 | 10° C | 54% | 867.9 hPa | - | 6.26 m/s, 128° | - | - |
| 1778023058 | 10° C | 53% | 868.1 hPa | - | 6.26 m/s, 137° | - | - |
| 1778022936 | 10° C | 53% | 868 hPa | - | 6.71 m/s, 124° | - | - |
| 1778022814 | 10° C | 53% | 868 hPa | - | 6.26 m/s, 127° | - | - |
| 1778022694 | 10° C | 53% | 868 hPa | - | 6.26 m/s, 128° | - | - |
| 1778022575 | 10° C | 53% | 868 hPa | - | 6.26 m/s, 133° | - | - |
| 1778022455 | 10° C | 53% | 868.1 hPa | - | 5.81 m/s, 119° | - | - |
| 1778022335 | 10° C | 53% | 868.1 hPa | - | 7.6 m/s, 137° | - | - |
| 1778022215 | 10° C | 53% | 868 hPa | - | 5.81 m/s, 121° | - | - |
| 1778022095 | 10° C | 53% | 868 hPa | - | 3.58 m/s, 143° | - | - |
| 1778021974 | 10° C | 53% | 868 hPa | - | 4.92 m/s, 134° | - | - |
| 1778021854 | 10° C | 53% | 867.9 hPa | - | 6.71 m/s, 126° | - | - |
| 1778021735 | 10° C | 53% | 867.9 hPa | - | 7.6 m/s, 145° | - | - |
| 1778021613 | 10° C | 53% | 867.9 hPa | - | 6.26 m/s, 132° | - | - |
| 1778021493 | 10° C | 53% | 867.9 hPa | - | 7.6 m/s, 124° | - | - |
* Rain since midnight (hover to see other rain measurements)
** Current wind speed in m/s (hover to see current wind gust speed)